Flag for Netherlands

Past Weather in Amsterdam, Netherlands — Yesterday and Last 2 Weeks

Now
52 °F

Light rain. Partly cloudy.


Feels Like: 49 °F
Forecast: 63 / 56 °F
Wind: 9 mph from Northeast

Location: Amsterdam Schiphol Airport
Current Time: Sep 26, 2020 at 2:17:52 am
Latest Report: Sep 26, 2020 at 1:25 am
Visibility: N/A
Pressure29.33 "Hg
Humidity: 94%
Dew Point: 50 °F
Location of AmsterdamLocation

Past Weather in Amsterdam — Graph

°F

Amsterdam Temperature Yesterday

Maximum temperature yesterday: 55 °F (at 12:25 am)
Minimum temperature yesterday: 48 °F (at 6:55 am)
Average temperature yesterday: 52 °F

High & Low Weather Summary for the Past Weeks

 TemperatureHumidityPressure
High88 °F (Sep 15, 3:55 pm)100% (Sep 13, 3:55 am)30.42 "Hg (Sep 13, 3:55 am)
Low46 °F (Sep 22, 5:55 am)34% (Sep 21, 3:55 pm)29.21 "Hg (Sep 25, 6:25 pm)
Average61 °F76%29.98 "Hg
* Reported Sep 11 12:25 am — Sep 26 12:55 am, Amsterdam. Weather by CustomWeather, © 2020

Note: Actual official high and low records may vary slightly from our data, if they occured in-between our weather recording intervals... More about our weather records

Amsterdam Weather History for the Previous 24 Hours

Scroll right to see more
 ConditionsComfort  
Time TempWeatherWind HumidityBarometerVisibility
12:55 am
Sat, Sep 26
52 °FPartly cloudy.6 mph94%29.30 "HgN/A
12:25 am52 °FPassing clouds.8 mph94%29.30 "HgN/A
11:55 pm
Fri, Sep 25
50 °FPassing clouds.12 mph94%29.27 "HgN/A
11:25 pm50 °FPassing clouds.9 mph94%29.27 "HgN/A
10:55 pm50 °FPassing clouds.5 mph94%29.27 "HgN/A
10:25 pm48 °FPassing clouds.6 mph94%29.24 "HgN/A
9:55 pm48 °FPassing clouds.6 mph94%29.24 "HgN/A
9:25 pm52 °FPassing clouds.9 mph88%29.21 "HgN/A
8:55 pm54 °FPassing clouds.13 mph88%29.21 "HgN/A
8:25 pm54 °FPassing clouds.10 mph88%29.21 "HgN/A
7:55 pm54 °FScattered showers. Passing clouds.13 mph88%29.24 "HgN/A
7:25 pm54 °FScattered clouds.12 mph88%29.21 "HgN/A
6:55 pm54 °FSprinkles. Scattered clouds.13 mph94%29.21 "HgN/A
6:25 pm54 °FSprinkles. Scattered clouds.10 mph88%29.21 "HgN/A
5:55 pm54 °FSprinkles. Scattered clouds.16 mph88%29.24 "Hg6 mi
5:25 pm54 °FSprinkles. Broken clouds.20 mph88%29.24 "HgN/A
4:55 pm54 °FRain showers. Partly sunny.21 mph88%29.24 "Hg4 mi
4:25 pm54 °FScattered showers. Scattered clouds.22 mph94%29.24 "HgN/A
3:55 pm54 °FSprinkles. Scattered clouds.21 mph94%29.27 "Hg5 mi
2:55 pm54 °FRain showers. Scattered clouds.25 mph82%29.27 "Hg2 mi
2:25 pm55 °FScattered showers. Scattered clouds.22 mph77%29.27 "HgN/A
1:55 pm55 °FSprinkles. Scattered clouds.21 mph77%29.27 "HgN/A
1:25 pm52 °FScattered showers. Scattered clouds.24 mph88%29.30 "HgN/A
12:55 pm54 °FSprinkles. Scattered clouds.25 mph77%29.30 "HgN/A
12:25 pm54 °FSprinkles. Scattered clouds.21 mph77%29.30 "HgN/A
11:55 am54 °FScattered clouds.20 mph77%29.30 "HgN/A
11:25 am54 °FPartly sunny.21 mph72%29.33 "HgN/A
10:55 am54 °FScattered clouds.18 mph72%29.33 "HgN/A
10:25 am52 °FScattered clouds.21 mph77%29.33 "HgN/A
9:55 am50 °FPartly sunny.17 mph82%29.30 "HgN/A
9:25 am50 °FScattered clouds.18 mph82%29.33 "HgN/A
8:55 am50 °FScattered clouds.18 mph82%29.33 "HgN/A
8:25 am50 °FPassing clouds.16 mph82%29.33 "HgN/A
7:55 am48 °FPassing clouds.15 mph87%29.33 "HgN/A
7:25 am48 °FPassing clouds.17 mph87%29.33 "HgN/A
6:55 am48 °FPassing clouds.15 mph87%29.33 "HgN/A
6:25 am50 °FPassing clouds.14 mph82%29.33 "HgN/A
5:55 am50 °FPassing clouds.12 mph82%29.33 "HgN/A
5:25 am50 °FPassing clouds.15 mph82%29.33 "HgN/A
4:55 am50 °FPassing clouds.15 mph82%29.33 "HgN/A
4:25 am52 °FPassing clouds.15 mph77%29.30 "HgN/A
3:55 am52 °FPassing clouds.14 mph82%29.30 "HgN/A
2:55 am54 °FPassing clouds.16 mph88%29.33 "HgN/A
2:25 am54 °FPassing clouds.16 mph88%29.33 "HgN/A
Weather by CustomWeather, © 2020

See weather overview